Overview Statistics Trail Chart Weather Telemetry Raw packets
 

This is the latest recevied weather packets stored in our database for station/object KD7AWQ. If no packets are shown the sender has not sent any weather packets the latest 10 day(s).

<< 73 74 75 76 77 78 79 >>
Time Temp. Humidity Pressure Rain* Wind** Luminosity Snow
1787906156 28.89° C 30% 1189.2 hPa 0 mm - 0 W/m² -
1787905852 30° C 29% 1188.9 hPa 0 mm - 0 W/m² -
1787905551 30° C 28% 1189 hPa 0 mm - 0 W/m² -
1787905249 29.44° C 28% 1189.6 hPa 0 mm - 0 W/m² -
1787904947 29.44° C 28% 1189.3 hPa 0 mm - 0 W/m² -
1787904644 29.44° C 29% 1189.1 hPa 0 mm - 0 W/m² -
1787904343 29.44° C 29% 1189.2 hPa 0 mm - 0 W/m² -
1787904039 29.44° C 29% 1189.5 hPa 0 mm - 0 W/m² -
1787903734 30° C 29% 1189.2 hPa 0 mm - 0 W/m² -
1787903431 30° C 28% 1189.3 hPa 0 mm - 0 W/m² -
1787903126 30° C 28% 1189.3 hPa 0 mm - 0 W/m² -
1787902823 30.56° C 27% 1189.5 hPa 0 mm - 0 W/m² -
1787902518 30° C 27% 1189.6 hPa 0 mm - 0 W/m² -
1787902213 30° C 27% 1189.2 hPa 0 mm - 0 W/m² -
1787901908 29.44° C 28% 1189.2 hPa 0 mm - 0 W/m² -
1787901604 29.44° C 29% 1189.3 hPa 0 mm - 0 W/m² -
1787901299 29.44° C 29% 1189.5 hPa 0 mm - 0 W/m² -
1787900994 28.89° C 29% 1189.3 hPa 0 mm - 0 W/m² -
1787900690 28.89° C 29% 1189.5 hPa 0 mm - 0 W/m² -
1787900389 28.89° C 29% 1189.7 hPa 0 mm - 0 W/m² -
1787900083 28.89° C 30% 1189.3 hPa 0 mm - 0 W/m² -
1787899779 28.89° C 30% 1189.2 hPa 0 mm - 0 W/m² -
1787899475 28.89° C 30% 1189.2 hPa 0 mm - 0 W/m² -
1787899175 28.89° C 30% 1189.7 hPa 0 mm - 0 W/m² -
1787898869 28.33° C 32% 1189.6 hPa 0 mm - 0 W/m² -

* Rain latest hour (hover to see other rain measurements)
** Current wind speed in m/s (hover to see current wind gust speed)